SL-14 R/B (19574 NORAD) Tracking and Keplerian Element Data

This shows tracking and keplerian element data for the satellite.

Feedback or suggestion? Click here.




ElementValue
Catalog19574
NameSL-14 R/B
Epoch Orbit77642
Epoch Day15.59347844
Epoch Year2022
RAAN20.3361
Inclination82.5313
Eccentricity0.0021627
Argument of Perigee3.1764
Mean Anonmoly136.3701
Mean Motion14.83415131
Decay Rate2.13E-06
L11 19574U 88093B 22015.59347844 .00000213 00000+0 22940-4 0 9994
L22 19574 82.5313 20.3361 0021627 3.1764 136.3701 14.83415131776422

Live tracking and technical data element details for SL-14 R/B (NORAD 19574). SL-14 R/B can be tracked NOW for your location showing map with azimuth and elevation plus other details from your city location.

Track the satellite on the map from your city or location and see movement details for azimuth, elevation, latitude, longitude, range, height, and movement on the map or in text.







IsCatalogInMostPopularTable: catalog: 19574, numindb: 295
Update: records affected: 1



GetName: 19574 SL-14 R/B

Hit Count: updated at: Mon, 17 Jan 2022 00:46:39 GMT